This is the latest recevied weather packets stored in our database for station/object M0OAB-1. If no packets are shown the sender has not sent any weather packets the latest 10 day(s).
| Time | Temp. | Humidity | Pressure | Rain* | Wind** | Luminosity | Snow |
|---|---|---|---|---|---|---|---|
| 1778005085 | 13.89° C | 61% | 997.7 hPa | 0 mm | - | - | - |
| 1778003646 | 13.89° C | 60% | 997.6 hPa | 0 mm | - | - | - |
| 1778003285 | 14.44° C | 59% | 997.6 hPa | 0 mm | - | - | - |
| 1778000885 | 15° C | 56% | 997.7 hPa | 0 mm | - | - | - |
| 1778000645 | 15° C | 57% | 997.8 hPa | 0 mm | - | - | - |
| 1778000285 | 15.56° C | 55% | 997.8 hPa | 0 mm | - | - | - |
| 1778000045 | 15.56° C | 55% | 997.8 hPa | 0 mm | - | - | - |
| 1777999805 | 15.56° C | 55% | 997.7 hPa | 0 mm | - | - | - |
| 1777999205 | 16.11° C | 53% | 997.8 hPa | 0 mm | - | - | - |
| 1777998605 | 16.67° C | 54% | 997.7 hPa | 0 mm | - | - | - |
| 1777998365 | 16.67° C | 54% | 997.7 hPa | 0 mm | - | - | - |
| 1777998245 | 16.67° C | 54% | 997.7 hPa | 0 mm | - | - | - |
| 1777997285 | 16.11° C | 54% | 997.7 hPa | 0 mm | - | - | - |
| 1777996085 | 16.67° C | 52% | 997.8 hPa | 0 mm | - | - | - |
| 1777995845 | 16.67° C | 51% | 997.7 hPa | 0 mm | - | - | - |
| 1777995365 | 17.22° C | 51% | 997.8 hPa | 0 mm | - | - | - |
| 1777994885 | 17.78° C | 46% | 997.7 hPa | 0 mm | - | - | - |
| 1777994645 | 17.22° C | 47% | 997.6 hPa | 0 mm | - | - | - |
| 1777994285 | 17.78° C | 41% | 997.6 hPa | 0 mm | - | - | - |
| 1777994045 | 17.78° C | 42% | 997.7 hPa | 0 mm | - | - | - |
| 1777993925 | 17.78° C | 42% | 997.7 hPa | 0 mm | - | - | - |
| 1777993565 | 17.78° C | 42% | 997.7 hPa | 0 mm | - | - | - |
| 1777993325 | 17.78° C | 42% | 997.6 hPa | 0 mm | - | - | - |
| 1777992845 | 18.33° C | 41% | 997.7 hPa | 0 mm | - | - | - |
| 1777989485 | 18.89° C | 43% | 997.9 hPa | 0 mm | - | - | - |
* Rain latest hour (hover to see other rain measurements)
** Current wind speed in m/s (hover to see current wind gust speed)